Terminal Aerodrome Forecast
Issued by NWS Missoula, MT

Home | Current Version | Previous Version | Text Only | Print | Product List | Glossary On
Versions: 1 2 3 4 5 6 7 8 9 10 11 12 13 14 15 16 17 18 19
000
FTUS45 KMSO 220200 AAA
TAFBTM
TAF AMD
KBTM 220231Z 2203/2224 15010KT P6SM VCTS BKN080CB
     FM220300 27010KT 5SM -TSRA BKN060CB
     FM220400 14004KT P6SM VCSH BKN080
     FM221300 VRB04KT 6SM -SHRA VCTS BKN030 OVC050CB=

USA.gov is the U.S. government's official web portal to all federal, state and local government web resources and services.